"Period start","avg(HW err(1)/warn(2) (#))","avg(Visibility (m))","avg(Weather code (#))","avg(Precip intensity (mm/h))","min(HW err(1)/warn(2) (#))","max(HW err(1)/warn(2) (#))","std(HW err(1)/warn(2) (#))","med(HW err(1)/warn(2) (#))","min(Visibility (m))","max(Visibility (m))","std(Visibility (m))","med(Visibility (m))","min(Weather code (#))","max(Weather code (#))","std(Weather code (#))","med(Weather code (#))","min(Precip intensity (mm/h))","max(Precip intensity (mm/h))","std(Precip intensity (mm/h))","med(Precip intensity (mm/h))"
2017-06-12 00:00:00,0,38205,0,0.00,0,0,0,0,25799,50000,9406,37296,0,0,0,0,0.00,0.00,0.00,0.00
2017-06-12 00:10:00,0,32241,0,0.00,0,0,0,0,22243,42335,6744,32430,0,0,0,0,0.00,0.00,0.00,0.00
2017-06-12 00:20:00,0,36988,0,0.00,0,0,0,0,24927,48575,8600,39560,0,0,0,0,0.00,0.00,0.00,0.00
2017-06-12 00:30:00,0,41687,0,0.00,0,0,0,0,34095,50000,4819,42357,0,0,0,0,0.00,0.00,0.00,0.00
2017-06-12 00:40:00,0,41512,0,0.00,0,0,0,0,29306,50000,7709,44511,0,0,0,0,0.00,0.00,0.00,0.00
2017-06-12 00:50:00,0,37329,0,0.00,0,0,0,0,27393,50000,9006,32843,0,0,0,0,0.00,0.00,0.00,0.00
2017-06-12 01:00:00,0,36886,0,0.00,0,0,0,0,21387,50000,9722,38516,0,0,0,0,0.00,0.00,0.00,0.00
2017-06-12 01:10:00,0,37959,0,0.00,0,0,0,0,20928,50000,10154,39856,0,0,0,0,0.00,0.00,0.00,0.00
2017-06-12 01:20:00,2,43503,0,0.00,0,2,1,2,38250,50000,3562,43914,0,0,0,0,0.00,0.00,0.00,0.00
2017-06-12 01:30:00,2,40378,0,0.00,2,2,0,2,29008,50000,7061,39520,0,0,0,0,0.00,0.00,0.00,0.00
2017-06-12 01:40:00,0,41054,0,0.00,0,0,0,0,23972,50000,9516,46112,0,0,0,0,0.00,0.00,0.00,0.00
2017-06-12 01:50:00,0,39621,0,0.00,0,0,0,0,24386,50000,8117,41604,0,0,0,0,0.00,0.00,0.00,0.00
2017-06-12 02:00:00,0,41415,0,0.00,0,0,0,0,26629,50000,8002,42199,0,0,0,0,0.00,0.00,0.00,0.00
2017-06-12 02:10:00,0,38724,0,0.00,0,0,0,0,21789,50000,8355,38992,0,0,0,0,0.00,0.00,0.00,0.00
2017-06-12 02:20:00,0,41763,0,0.00,0,0,0,0,29662,50000,7358,42792,0,0,0,0,0.00,0.00,0.00,0.00
2017-06-12 02:30:00,0,39468,0,0.00,0,0,0,0,21828,50000,9187,37810,0,0,0,0,0.00,0.00,0.00,0.00
2017-06-12 02:40:00,0,44497,0,0.00,0,0,0,0,35293,50000,5576,46839,0,0,0,0,0.00,0.00,0.00,0.00
2017-06-12 02:50:00,0,42948,0,0.00,0,0,0,0,29563,50000,6343,44182,0,0,0,0,0.00,0.00,0.00,0.00
2017-06-12 03:00:00,0,45797,0,0.00,0,0,0,0,30480,50000,6682,49397,0,0,0,0,0.00,0.00,0.00,0.00
2017-06-12 03:10:00,0,39732,0,0.00,0,0,0,0,27751,50000,7533,39232,0,0,0,0,0.00,0.00,0.00,0.00
2017-06-12 03:20:00,0,39958,0,0.00,0,0,0,0,28434,50000,7906,41222,0,0,0,0,0.00,0.00,0.00,0.00
2017-06-12 03:30:00,0,40795,0,0.00,0,0,0,0,31755,49254,4740,41810,0,0,0,0,0.00,0.00,0.00,0.00
2017-06-12 03:40:00,0,40653,0,0.00,0,0,0,0,28688,48894,6330,41613,0,0,0,0,0.00,0.00,0.00,0.00
2017-06-12 03:50:00,0,43363,0,0.00,0,0,0,0,30215,50000,6787,45102,0,0,0,0,0.00,0.00,0.00,0.00
2017-06-12 04:00:00,0,44668,0,0.00,0,0,0,0,35502,50000,5394,46562,0,0,0,0,0.00,0.00,0.00,0.00
2017-06-12 04:10:00,0,44672,0,0.00,0,0,0,0,30939,50000,6319,47464,0,0,0,0,0.00,0.00,0.00,0.00
2017-06-12 04:20:00,0,42112,0,0.00,0,0,0,0,33824,50000,5211,41130,0,0,0,0,0.00,0.00,0.00,0.00
2017-06-12 04:30:00,0,42612,0,0.00,0,0,0,0,26291,50000,7965,45171,0,0,0,0,0.00,0.00,0.00,0.00
2017-06-12 04:40:00,0,41242,0,0.00,0,0,0,0,34468,50000,5039,40118,0,0,0,0,0.00,0.00,0.00,0.00
2017-06-12 04:50:00,0,46857,0,0.00,0,0,0,0,39388,50000,3525,47666,0,0,0,0,0.00,0.00,0.00,0.00
2017-06-12 05:00:00,0,48976,0,0.00,0,0,0,0,45992,50000,1435,50000,0,0,0,0,0.00,0.00,0.00,0.00
2017-06-12 05:10:00,0,48098,0,0.00,0,0,0,0,42420,50000,2789,50000,0,0,0,0,0.00,0.00,0.00,0.00
2017-06-12 05:20:00,0,49092,0,0.00,0,0,0,0,46367,50000,1160,49540,0,0,0,0,0.00,0.00,0.00,0.00
2017-06-12 05:30:00,0,44853,0,0.00,0,0,0,0,35728,50000,5093,45510,0,0,0,0,0.00,0.00,0.00,0.00
2017-06-12 05:40:00,0,45064,0,0.00,0,0,0,0,36940,50000,4827,47100,0,0,0,0,0.00,0.00,0.00,0.00
2017-06-12 05:50:00,0,47710,0,0.00,0,0,0,0,39165,50000,3548,49890,0,0,0,0,0.00,0.00,0.00,0.00
2017-06-12 06:00:00,0,49233,0,0.00,0,0,0,0,46047,50000,1294,50000,0,0,0,0,0.00,0.00,0.00,0.00
2017-06-12 06:10:00,0,47112,0,0.00,0,0,0,0,35937,50000,4185,48896,0,0,0,0,0.00,0.00,0.00,0.00
2017-06-12 06:20:00,0,43974,0,0.00,0,0,0,0,34735,50000,4075,43939,0,0,0,0,0.00,0.00,0.00,0.00
2017-06-12 06:30:00,0,46479,0,0.00,0,0,0,0,43616,50000,2303,46158,0,0,0,0,0.00,0.00,0.00,0.00
2017-06-12 06:40:00,0,45998,0,0.00,0,0,0,0,34179,50000,5283,49524,0,0,0,0,0.00,0.00,0.00,0.00
2017-06-12 06:50:00,0,47393,0,0.00,0,0,0,0,42774,50000,2712,48047,0,0,0,0,0.00,0.00,0.00,0.00
2017-06-12 07:00:00,0,46297,0,0.00,0,0,0,0,32349,50000,5330,48985,0,0,0,0,0.00,0.00,0.00,0.00
2017-06-12 07:10:00,0,44152,0,0.00,0,0,0,0,36971,50000,4913,44658,0,0,0,0,0.00,0.00,0.00,0.00
2017-06-12 07:20:00,0,47158,0,0.00,0,0,0,0,38246,50000,3711,48940,0,0,0,0,0.00,0.00,0.00,0.00
2017-06-12 07:30:00,0,46117,0,0.00,0,0,0,0,32800,50000,5594,48960,0,0,0,0,0.00,0.00,0.00,0.00
2017-06-12 07:40:00,0,45478,0,0.00,0,0,0,0,35554,50000,4978,47716,0,0,0,0,0.00,0.00,0.00,0.00
2017-06-12 07:50:00,0,47286,0,0.00,0,0,0,0,39112,50000,3871,50000,0,0,0,0,0.00,0.00,0.00,0.00
2017-06-12 08:00:00,0,48611,0,0.00,0,0,0,0,44830,50000,1789,49524,0,0,0,0,0.00,0.00,0.00,0.00
2017-06-12 08:10:00,0,47109,0,0.00,0,0,0,0,40919,50000,3359,48414,0,0,0,0,0.00,0.00,0.00,0.00
2017-06-12 08:20:00,0,45746,0,0.00,0,0,0,0,35578,50000,4604,46522,0,0,0,0,0.00,0.00,0.00,0.00
2017-06-12 08:30:00,0,48328,0,0.00,0,0,0,0,44357,50000,2157,49754,0,0,0,0,0.00,0.00,0.00,0.00
2017-06-12 08:40:00,0,46262,0,0.00,0,0,0,0,38024,50000,3364,46298,0,0,0,0,0.00,0.00,0.00,0.00
2017-06-12 08:50:00,0,49976,0,0.00,0,0,0,0,49757,50000,73,50000,0,0,0,0,0.00,0.00,0.00,0.00
2017-06-12 09:00:00,0,46364,0,0.00,0,0,0,0,37430,50000,4198,48176,0,0,0,0,0.00,0.00,0.00,0.00
2017-06-12 09:10:00,0,47683,0,0.00,0,0,0,0,41197,50000,2915,49292,0,0,0,0,0.00,0.00,0.00,0.00
2017-06-12 09:20:00,0,49324,0,0.00,0,0,0,0,45903,50000,1282,50000,0,0,0,0,0.00,0.00,0.00,0.00
2017-06-12 09:30:00,0,48852,0,0.00,0,0,0,0,45264,50000,1515,49608,0,0,0,0,0.00,0.00,0.00,0.00
2017-06-12 09:40:00,0,44325,0,0.00,0,0,0,0,31765,50000,6118,46845,0,0,0,0,0.00,0.00,0.00,0.00
2017-06-12 09:50:00,0,49920,0,0.00,0,0,0,0,49198,50000,241,50000,0,0,0,0,0.00,0.00,0.00,0.00
2017-06-12 10:00:00,0,47071,0,0.00,0,0,0,0,40910,50000,3562,48994,0,0,0,0,0.00,0.00,0.00,0.00
2017-06-12 10:10:00,0,41944,0,0.00,0,0,0,0,37759,47212,2872,42448,0,0,0,0,0.00,0.00,0.00,0.00
2017-06-12 10:20:00,0,49338,0,0.00,0,0,0,0,44309,50000,1687,50000,0,0,0,0,0.00,0.00,0.00,0.00
2017-06-12 10:30:00,0,48883,0,0.00,0,0,0,0,44589,50000,1741,50000,0,0,0,0,0.00,0.00,0.00,0.00
2017-06-12 10:40:00,0,48537,0,0.00,0,0,0,0,45953,50000,1639,49262,0,0,0,0,0.00,0.00,0.00,0.00
2017-06-12 10:50:00,0,48305,0,0.00,0,0,0,0,44913,50000,1707,48270,0,0,0,0,0.00,0.00,0.00,0.00
2017-06-12 11:00:00,0,46974,0,0.00,0,0,0,0,39592,50000,3927,49198,0,0,0,0,0.00,0.00,0.00,0.00
2017-06-12 11:10:00,0,45940,0,0.00,0,0,0,0,37317,50000,4641,48439,0,0,0,0,0.00,0.00,0.00,0.00
2017-06-12 11:20:00,0,46896,0,0.00,0,0,0,0,40439,50000,3573,48046,0,0,0,0,0.00,0.00,0.00,0.00
2017-06-12 11:30:00,0,48318,0,0.00,0,0,0,0,43595,50000,2572,50000,0,0,0,0,0.00,0.00,0.00,0.00
2017-06-12 11:40:00,1,47427,0,0.00,0,2,1,0,44424,50000,1582,47586,0,0,0,0,0.00,0.00,0.00,0.00
2017-06-12 11:50:00,0,48929,0,0.00,0,0,0,0,43392,50000,2034,50000,0,0,0,0,0.00,0.00,0.00,0.00
2017-06-12 12:00:00,0,47856,0,0.00,0,0,0,0,43630,50000,2366,48850,0,0,0,0,0.00,0.00,0.00,0.00
2017-06-12 12:10:00,0,49390,0,0.00,0,0,0,0,45921,50000,1234,50000,0,0,0,0,0.00,0.00,0.00,0.00
2017-06-12 12:20:00,0,49876,0,0.00,0,0,0,0,49078,50000,281,50000,0,0,0,0,0.00,0.00,0.00,0.00
2017-06-12 12:30:00,0,48993,0,0.00,0,0,0,0,47105,50000,1146,49403,0,0,0,0,0.00,0.00,0.00,0.00
2017-06-12 12:40:00,0,48521,0,0.00,0,0,0,0,44897,50000,1768,49609,0,0,0,0,0.00,0.00,0.00,0.00
2017-06-12 12:50:00,0,48450,0,0.00,0,0,0,0,39428,50000,3316,50000,0,0,0,0,0.00,0.00,0.00,0.00
2017-06-12 13:00:00,0,49025,0,0.00,0,0,0,0,43419,50000,1948,49864,0,0,0,0,0.00,0.00,0.00,0.00
2017-06-12 13:10:00,0,49804,0,0.00,0,0,0,0,48040,50000,588,50000,0,0,0,0,0.00,0.00,0.00,0.00
2017-06-12 13:20:00,0,49914,0,0.00,0,0,0,0,49143,50000,257,50000,0,0,0,0,0.00,0.00,0.00,0.00
2017-06-12 13:30:00,0,49872,0,0.00,0,0,0,0,49107,50000,280,50000,0,0,0,0,0.00,0.00,0.00,0.00
2017-06-12 13:40:00,0,49788,0,0.00,0,0,0,0,48800,50000,429,50000,0,0,0,0,0.00,0.00,0.00,0.00
2017-06-12 13:50:00,0,50000,0,0.00,0,0,0,0,50000,50000,0,50000,0,0,0,0,0.00,0.00,0.00,0.00
2017-06-12 14:00:00,0,49923,0,0.00,0,0,0,0,49228,50000,232,50000,0,0,0,0,0.00,0.00,0.00,0.00
2017-06-12 14:10:00,0,49968,0,0.00,0,0,0,0,49677,50000,97,50000,0,0,0,0,0.00,0.00,0.00,0.00
2017-06-12 14:20:00,0,49891,0,0.00,0,0,0,0,49112,50000,267,50000,0,0,0,0,0.00,0.00,0.00,0.00
2017-06-12 14:30:00,0,49492,0,0.00,0,0,0,0,45950,50000,1220,50000,0,0,0,0,0.00,0.00,0.00,0.00
2017-06-12 14:40:00,0,49718,0,0.00,0,0,0,0,47787,50000,669,50000,0,0,0,0,0.00,0.00,0.00,0.00
2017-06-12 14:50:00,0,50000,0,0.00,0,0,0,0,50000,50000,0,50000,0,0,0,0,0.00,0.00,0.00,0.00
2017-06-12 15:00:00,0,49276,0,0.00,0,0,0,0,46342,50000,1209,50000,0,0,0,0,0.00,0.00,0.00,0.00
2017-06-12 15:10:00,0,48848,0,0.00,0,0,0,0,45528,50000,1582,50000,0,0,0,0,0.00,0.00,0.00,0.00
2017-06-12 15:20:00,0,48678,0,0.00,0,0,0,0,45944,50000,1598,49806,0,0,0,0,0.00,0.00,0.00,0.00
2017-06-12 15:30:00,0,49994,0,0.00,0,0,0,0,49936,50000,19,50000,0,0,0,0,0.00,0.00,0.00,0.00
2017-06-12 15:40:00,0,50000,0,0.00,0,0,0,0,50000,50000,0,50000,0,0,0,0,0.00,0.00,0.00,0.00
2017-06-12 15:50:00,0,50000,0,0.00,0,0,0,0,50000,50000,0,50000,0,0,0,0,0.00,0.00,0.00,0.00
2017-06-12 16:00:00,0,49976,0,0.00,0,0,0,0,49759,50000,72,50000,0,0,0,0,0.00,0.00,0.00,0.00
2017-06-12 16:10:00,0,49946,0,0.00,0,0,0,0,49621,50000,118,50000,0,0,0,0,0.00,0.00,0.00,0.00
2017-06-12 16:20:00,0,50000,0,0.00,0,0,0,0,50000,50000,0,50000,0,0,0,0,0.00,0.00,0.00,0.00
2017-06-12 16:30:00,0,49950,0,0.00,0,0,0,0,49505,50000,148,50000,0,0,0,0,0.00,0.00,0.00,0.00
2017-06-12 16:40:00,0,50000,0,0.00,0,0,0,0,50000,50000,0,50000,0,0,0,0,0.00,0.00,0.00,0.00
2017-06-12 16:50:00,0,49948,0,0.00,0,0,0,0,49477,50000,157,50000,0,0,0,0,0.00,0.00,0.00,0.00
2017-06-12 17:00:00,0,49720,0,0.00,0,0,0,0,48761,50000,480,50000,0,0,0,0,0.00,0.00,0.00,0.00
2017-06-12 17:10:00,0,50000,0,0.00,0,0,0,0,50000,50000,0,50000,0,0,0,0,0.00,0.00,0.00,0.00
2017-06-12 17:20:00,0,49008,0,0.00,0,0,0,0,45483,50000,1570,50000,0,0,0,0,0.00,0.00,0.00,0.00
2017-06-12 17:30:00,0,50000,0,0.00,0,0,0,0,50000,50000,0,50000,0,0,0,0,0.00,0.00,0.00,0.00
2017-06-12 17:40:00,0,49939,0,0.00,0,0,0,0,49394,50000,182,50000,0,0,0,0,0.00,0.00,0.00,0.00
2017-06-12 17:50:00,0,49224,0,0.00,0,0,0,0,44672,50000,1682,50000,0,0,0,0,0.00,0.00,0.00,0.00
2017-06-12 18:00:00,0,50000,0,0.00,0,0,0,0,50000,50000,0,50000,0,0,0,0,0.00,0.00,0.00,0.00
2017-06-12 18:10:00,0,48415,0,0.00,0,0,0,0,43445,50000,2213,49548,0,0,0,0,0.00,0.00,0.00,0.00
2017-06-12 18:20:00,0,49036,0,0.00,0,0,0,0,45455,50000,1680,50000,0,0,0,0,0.00,0.00,0.00,0.00
2017-06-12 18:30:00,0,49663,0,0.00,0,0,0,0,48494,50000,544,50000,0,0,0,0,0.00,0.00,0.00,0.00
2017-06-12 18:40:00,0,49149,0,0.00,0,0,0,0,43206,50000,2046,50000,0,0,0,0,0.00,0.00,0.00,0.00
2017-06-12 18:50:00,0,50000,0,0.00,0,0,0,0,50000,50000,0,50000,0,0,0,0,0.00,0.00,0.00,0.00
2017-06-12 19:00:00,0,50000,0,0.00,0,0,0,0,50000,50000,0,50000,0,0,0,0,0.00,0.00,0.00,0.00
2017-06-12 19:10:00,0,49767,0,0.00,0,0,0,0,48752,50000,401,50000,0,0,0,0,0.00,0.00,0.00,0.00
2017-06-12 19:20:00,0,49777,0,0.00,0,0,0,0,47770,50000,669,50000,0,0,0,0,0.00,0.00,0.00,0.00
2017-06-12 19:30:00,0,47908,0,0.00,0,0,0,0,44494,50000,2185,48458,0,0,0,0,0.00,0.00,0.00,0.00
2017-06-12 19:40:00,0,49982,0,0.00,0,0,0,0,49818,50000,55,50000,0,0,0,0,0.00,0.00,0.00,0.00
2017-06-12 19:50:00,0,47106,0,0.00,0,0,0,0,40148,50000,3795,49948,0,0,0,0,0.00,0.00,0.00,0.00
2017-06-12 20:00:00,0,49594,0,0.00,0,0,0,0,45936,50000,1219,50000,0,0,0,0,0.00,0.00,0.00,0.00
2017-06-12 20:10:00,0,48226,0,0.00,0,0,0,0,39795,50000,3236,50000,0,0,0,0,0.00,0.00,0.00,0.00
2017-06-12 20:20:00,0,48412,0,0.00,0,0,0,0,44535,50000,2075,49347,0,0,0,0,0.00,0.00,0.00,0.00
2017-06-12 20:30:00,0,46448,0,0.00,0,0,0,0,35575,50000,5561,49922,0,0,0,0,0.00,0.00,0.00,0.00
2017-06-12 20:40:00,0,49655,0,0.00,0,0,0,0,48382,50000,606,50000,0,0,0,0,0.00,0.00,0.00,0.00
2017-06-12 20:50:00,0,45251,0,0.00,0,0,0,0,38239,50000,4537,45836,0,0,0,0,0.00,0.00,0.00,0.00
2017-06-12 21:00:00,0,47030,0,0.00,0,0,0,0,35744,50000,4250,49048,0,0,0,0,0.00,0.00,0.00,0.00
2017-06-12 21:10:00,0,43526,0,0.00,0,0,0,0,31086,50000,6212,45282,0,0,0,0,0.00,0.00,0.00,0.00
2017-06-12 21:20:00,0,48072,0,0.00,0,0,0,0,44782,50000,1979,48822,0,0,0,0,0.00,0.00,0.00,0.00
2017-06-12 21:30:00,0,46799,0,0.00,0,0,0,0,36211,50000,4810,49058,0,0,0,0,0.00,0.00,0.00,0.00
2017-06-12 21:40:00,0,46339,0,0.00,0,0,0,0,36770,50000,4706,49201,0,0,0,0,0.00,0.00,0.00,0.00
2017-06-12 21:50:00,0,45655,0,0.00,0,0,0,0,41450,50000,2910,45510,0,0,0,0,0.00,0.00,0.00,0.00
2017-06-12 22:00:00,0,44741,0,0.00,0,0,0,0,39808,50000,3388,44259,0,0,0,0,0.00,0.00,0.00,0.00
2017-06-12 22:10:00,0,46861,0,0.00,0,0,0,0,35809,50000,4112,47922,0,0,0,0,0.00,0.00,0.00,0.00
2017-06-12 22:20:00,0,45641,0,0.00,0,0,0,0,39492,50000,4406,47341,0,0,0,0,0.00,0.00,0.00,0.00
2017-06-12 22:30:00,2,43966,0,0.00,0,2,1,2,34190,50000,5389,44842,0,0,0,0,0.00,0.00,0.00,0.00
2017-06-12 22:40:00,2,48296,0,0.00,2,2,0,2,42208,50000,2961,50000,0,0,0,0,0.00,0.00,0.00,0.00
2017-06-12 22:50:00,2,44156,0,0.00,2,2,0,2,31749,50000,5056,44986,0,0,0,0,0.00,0.00,0.00,0.00
2017-06-12 23:00:00,2,45010,0,0.00,2,2,0,2,37371,50000,4848,46525,0,0,0,0,0.00,0.00,0.00,0.00
2017-06-12 23:10:00,2,42788,0,0.00,2,2,0,2,28650,50000,8690,48057,0,0,0,0,0.00,0.00,0.00,0.00
2017-06-12 23:20:00,2,38144,0,0.00,2,2,0,2,23513,50000,9058,39270,0,0,0,0,0.00,0.00,0.00,0.00
2017-06-12 23:30:00,2,40288,0,0.00,2,2,0,2,29625,50000,5903,40270,0,0,0,0,0.00,0.00,0.00,0.00
2017-06-12 23:40:00,2,45800,0,0.00,2,2,0,2,40456,50000,3886,45822,0,0,0,0,0.00,0.00,0.00,0.00
2017-06-12 23:50:00,2,42933,0,0.00,2,2,0,2,23389,50000,8172,46054,0,0,0,0,0.00,0.00,0.00,0.00
